Flag for Indonesia Weather past 2 weeks in Manado, North Sulawesi, Indonesia

Now
90 °F

Passing clouds.


Feels Like: 98 °F
Forecast: 77 / 89 °F
Wind: 5 mph from West

Location: Menado / Dr. Sam Ratulangi


UV Index: 7 (High)

Visibility: N/A


Pressure: 29.80 "Hg

Humidity: 59%

Dew point: 73 °F

Location of ManadoLocation

Historic Weather in Manado

°F

Manado temperature yesterday

Maximum temperature yesterday: 90 °F (at 1:00 PM)
Minimum temperature yesterday: 75 °F (at 12:00 AM)
Average temperature yesterday: 82 °F

Past Weeks' High & Low Weather Summary

 TemperatureHumidityPressure
High90 °F (Apr 11, 1:30 PM)100% (Apr 7, 5:30 AM)29.92 "Hg (Apr 7, 5:30 AM)
Low72 °F (Apr 11, 6:00 AM)55% (Apr 7, 2:00 PM)29.71 "Hg (Apr 19, 2:00 PM)
Average82 °F83%29.82 "Hg
* Reported Apr 6 11:00 AM — Apr 21 11:00 AM, Manado, Weather by CustomWeather, © 2014

Note: Actual official high and low records may vary slightly from our data, if they occured in-between our weather recording intervals... More about our weather records

Advertising

Historic Weather Conditions — Data for Previous 24 hours

 ConditionsComfort  
Time TempWeatherWind HumidityBarometerVisibility
11:00 AM
Apr 21
90 °FPassing clouds.5 mph59%29.80 "HgN/A
10:30 AM90 °FPassing clouds.5 mph55%29.80 "HgN/A
10:00 AM88 °FPassing clouds.5 mph55%29.80 "HgN/A
9:30 AM88 °FPassing clouds.3 mph62%29.83 "HgN/A
9:00 AM88 °FPassing clouds.2 mph62%29.83 "HgN/A
8:00 AM84 °FPassing clouds.3 mph79%29.80 "HgN/A
7:30 AM84 °FPassing clouds.1 mph74%29.80 "HgN/A
7:00 AM81 °FPassing clouds.2 mph84%29.80 "HgN/A
6:30 AM77 °FPassing clouds.1 mph94%29.80 "HgN/A
6:00 AM73 °FPassing clouds.2 mph100%29.77 "HgN/A
5:30 AM75 °FPassing clouds.1 mph94%29.77 "Hg6 mi
5:00 AM75 °FPassing clouds.No wind94%29.77 "Hg6 mi
12:00 AM75 °FPassing clouds.No wind100%29.80 "Hg6 mi
11:00 PM
Apr 20
77 °FPassing clouds.No wind94%29.83 "Hg6 mi
10:30 PM77 °FPassing clouds.No wind94%29.83 "Hg6 mi
10:00 PM79 °FPassing clouds.No wind94%29.83 "Hg6 mi
9:30 PM79 °FPassing clouds.2 mph94%29.83 "Hg6 mi
9:00 PM77 °FPassing clouds.1 mph94%29.83 "Hg5 mi
8:30 PM79 °FPassing clouds.No wind94%29.83 "Hg5 mi
7:30 PM81 °FPassing clouds.No wind89%29.80 "Hg6 mi
7:00 PM81 °FPassing clouds.No wind84%29.80 "Hg6 mi
6:30 PM81 °FPassing clouds.No wind89%29.80 "HgN/A
6:00 PM82 °FPassing clouds.2 mph84%29.77 "HgN/A
5:30 PM84 °FPassing clouds.3 mph79%29.77 "HgN/A
5:00 PM86 °FPassing clouds.3 mph70%29.77 "HgN/A
4:30 PM88 °FPassing clouds.5 mph66%29.77 "HgN/A
4:00 PM88 °FPassing clouds.3 mph66%29.77 "HgN/A
3:30 PM86 °FPassing clouds.6 mph66%29.74 "HgN/A
3:00 PM88 °FPassing clouds.8 mph66%29.74 "HgN/A
2:30 PM88 °FScattered clouds.5 mph62%29.77 "HgN/A
2:00 PM88 °FScattered clouds.7 mph59%29.77 "HgN/A
1:30 PM88 °FScattered clouds.7 mph62%29.77 "HgN/A
1:00 PM90 °FScattered clouds.6 mph59%29.80 "HgN/A
12:00 PM88 °FPassing clouds.6 mph62%29.80 "HgN/A
Weather by CustomWeather, © 2014

See weather overview